| time (UTC) | temp C | wind direction | speed KPH | gust KPH | rain 1hr cm | rain 24hr cm | rain mn cm | humidity % | barometer mb |
| 20260506222340 | 11 | 82 | 0.0 | 3.2 | 0.00 | 0.00 | 0.00 | 48 | 1012.7 |
| 20260506221826 | 11 | 214 | 0.0 | 3.2 | 0.00 | 0.00 | 0.00 | 49 | 1012.7 |
| 20260506221319 | 11 | 70 | 0.0 | 3.2 | 0.00 | 0.00 | 0.00 | 48 | 1012.6 |
| 20260506220819 | 11 | 102 | 0.0 | 3.2 | 0.00 | 0.00 | 0.00 | 48 | 1012.6 |
| 20260506220306 | 11 | 76 | 0.0 | 1.6 | 0.00 | 0.00 | 0.00 | 47 | 1012.6 |
| 20260506215805 | 11 | 86 | 1.6 | 8.0 | 0.00 | 0.00 | 0.00 | 48 | 1012.6 |
| 20260506215248 | 11 | 79 | 1.6 | 8.0 | 0.00 | 0.00 | 0.00 | 47 | 1012.5 |
| 20260506214738 | 11 | 106 | 1.6 | 4.8 | 0.00 | 0.00 | 0.00 | 48 | 1012.6 |
| 20260506214512 | 11 | 81 | 1.6 | 8.0 | 0.00 | 0.00 | 0.00 | 49 | 1012.5 |
| 20260506214225 | 11 | 88 | 1.6 | 8.0 | 0.00 | 0.00 | 0.00 | 47 | 1012.4 |
| 20260506213151 | 11 | 72 | 1.6 | 4.8 | 0.00 | 0.00 | 0.00 | 49 | 1012.4 |
| 20260506212651 | 11 | 85 | 1.6 | 8.0 | 0.00 | 0.00 | 0.00 | 48 | 1012.5 |
| 20260506212151 | 11 | 63 | 3.2 | 8.0 | 0.00 | 0.00 | 0.00 | 47 | 1012.4 |
| 20260506211618 | 11 | 72 | 3.2 | 8.0 | 0.00 | 0.00 | 0.00 | 47 | 1012.4 |
| 20260506211110 | 11 | 71 | 3.2 | 8.0 | 0.00 | 0.00 | 0.00 | 47 | 1012.5 |
| 20260506210557 | 11 | 61 | 3.2 | 11.3 | 0.00 | 0.00 | 0.00 | 46 | 1012.5 |
| 20260506210339 | 11 | 51 | 1.6 | 11.3 | 0.00 | 0.00 | 0.00 | 47 | 1012.6 |
| 20260506210335 | 11 | 63 | 1.6 | 9.7 | 0.00 | 0.00 | 0.00 | 48 | 1012.4 |
| 20260506205049 | 11 | 219 | 3.2 | 9.7 | 0.00 | 0.00 | 0.00 | 48 | 1012.5 |
| 20260506204542 | 11 | 61 | 1.6 | 9.7 | 0.00 | 0.00 | 0.00 | 47 | 1012.5 |
| 20260506204037 | 11 | 169 | 1.6 | 9.7 | 0.00 | 0.00 | 0.00 | 47 | 1012.6 |
| 20260506203533 | 11 | 70 | 1.6 | 9.7 | 0.00 | 0.00 | 0.00 | 47 | 1012.6 |
| 20260506203010 | 11 | 52 | 3.2 | 9.7 | 0.00 | 0.00 | 0.00 | 47 | 1012.5 |
| 20260506202505 | 11 | 46 | 3.2 | 11.3 | 0.00 | 0.00 | 0.00 | 51 | 1012.5 |
| 20260506201954 | 11 | 56 | 1.6 | 11.3 | 0.00 | 0.00 | 0.00 | 48 | 1012.5 |
| 20260506201448 | 11 | 111 | 1.6 | 14.5 | 0.00 | 0.00 | 0.00 | 49 | 1007.8 |
| 20260506200941 | 11 | 69 | 3.2 | 14.5 | 0.00 | 0.00 | 0.00 | 49 | 1012.5 |
| 20260506200729 | 11 | 68 | 1.6 | 6.4 | 0.00 | 0.00 | 0.00 | 47 | 1012.8 |
| 20260506200725 | 11 | 81 | 3.2 | 9.7 | 0.00 | 0.00 | 0.00 | 47 | 1012.7 |
| 20260506195354 | 11 | 91 | 1.6 | 11.3 | 0.00 | 0.00 | 0.00 | 50 | 1012.7 |
| 20260506195109 | 11 | 131 | 1.6 | 11.3 | 0.00 | 0.00 | 0.00 | 48 | 1012.7 |
| 20260506194352 | 11 | 70 | 3.2 | 14.5 | 0.00 | 0.00 | 0.00 | 48 | 1012.7 |
| 20260506193843 | 11 | 108 | 4.8 | 14.5 | 0.00 | 0.00 | 0.00 | 49 | 1012.8 |
| 20260506193336 | 11 | 68 | 3.2 | 12.9 | 0.00 | 0.00 | 0.00 | 47 | 1012.8 |
| 20260506193053 | 11 | 210 | 1.6 | 14.5 | 0.00 | 0.00 | 0.00 | 47 | 1012.8 |
| 20260506192308 | 11 | 214 | 3.2 | 11.3 | 0.00 | 0.00 | 0.00 | 48 | 1012.9 |
| 20260506191757 | 11 | 58 | 3.2 | 14.5 | 0.00 | 0.00 | 0.00 | 48 | 1013.0 |
| 20260506191252 | 11 | 60 | 3.2 | 11.3 | 0.00 | 0.00 | 0.00 | 49 | 1013.0 |
| 20260506191010 | 11 | 63 | 1.6 | 9.7 | 0.00 | 0.00 | 0.00 | 48 | 1013.1 |
| 20260506190221 | 11 | 79 | 3.2 | 12.9 | 0.00 | 0.00 | 0.00 | 49 | 1012.9 |
| 20260506185708 | 11 | 84 | 1.6 | 12.9 | 0.00 | 0.00 | 0.00 | 48 | 1012.9 |
| 20260506185208 | 12 | 93 | 1.6 | 11.3 | 0.00 | 0.00 | 0.00 | 49 | 1012.9 |
| 20260506184707 | 11 | 81 | 1.6 | 11.3 | 0.00 | 0.00 | 0.00 | 48 | 1012.8 |
| 20260506184143 | 12 | 89 | 1.6 | 6.4 | 0.00 | 0.00 | 0.00 | 47 | 1012.7 |
| 20260506183913 | 12 | 207 | 1.6 | 8.0 | 0.00 | 0.00 | 0.00 | 49 | 1012.8 |
| 20260506183123 | 11 | 222 | 3.2 | 9.7 | 0.00 | 0.00 | 0.00 | 48 | 1012.7 |
| 20260506182622 | 11 | 214 | 1.6 | 9.7 | 0.00 | 0.00 | 0.00 | 49 | 1012.6 |
| 20260506182119 | 11 | 66 | 1.6 | 12.9 | 0.00 | 0.00 | 0.00 | 51 | 1012.7 |
| 20260506181616 | 11 | 216 | 1.6 | 12.9 | 0.00 | 0.00 | 0.00 | 51 | 1012.7 |
| 20260506181106 | 11 | 113 | 3.2 | 16.1 | 0.00 | 0.00 | 0.00 | 51 | 1012.8 |
| 20260506180608 | 10 | 90 | 3.2 | 16.1 | 0.00 | 0.00 | 0.00 | 51 | 1012.8 |
| 20260506180048 | 10 | 209 | 3.2 | 14.5 | 0.00 | 0.00 | 0.00 | 50 | 1012.8 |
| 20260506175545 | 11 | 117 | 1.6 | 14.5 | 0.00 | 0.00 | 0.00 | 50 | 1012.8 |
| 20260506175028 | 11 | 244 | 1.6 | 6.4 | 0.00 | 0.00 | 0.00 | 50 | 1012.8 |
| 20260506174517 | 10 | 193 | 3.2 | 6.4 | 0.00 | 0.00 | 0.00 | 51 | 1012.8 |
| 20260506174256 | 10 | 101 | 3.2 | 12.9 | 0.00 | 0.00 | 0.00 | 52 | 1012.9 |
| 20260506173513 | 10 | 86 | 3.2 | 12.9 | 0.00 | 0.00 | 0.00 | 50 | 1013.0 |
| 20260506173003 | 10 | 110 | 3.2 | 19.3 | 0.00 | 0.00 | 0.00 | 51 | 1013.2 |
| 20260506172431 | 10 | 251 | 3.2 | 19.3 | 0.00 | 0.00 | 0.00 | 51 | 1013.2 |
| 20260506171858 | 10 | 88 | 3.2 | 11.3 | 0.00 | 0.00 | 0.00 | 50 | 1013.3 |
| 20260506171356 | 10 | 101 | 1.6 | 11.3 | 0.00 | 0.00 | 0.00 | 51 | 1008.8 |
| 20260506170858 | 10 | 95 | 1.6 | 9.7 | 0.00 | 0.00 | 0.00 | 53 | 1013.0 |
| 20260506170352 | 10 | 83 | 3.2 | 12.9 | 0.00 | 0.00 | 0.00 | 55 | 1013.0 |
| 20260506165844 | 10 | 81 | 1.6 | 12.9 | 0.00 | 0.00 | 0.00 | 55 | 1013.0 |
| 20260506165335 | 10 | 110 | 1.6 | 9.7 | 0.00 | 0.00 | 0.00 | 53 | 1012.9 |
| 20260506165103 | 10 | 115 | 1.6 | 8.0 | 0.00 | 0.00 | 0.00 | 53 | 1013.0 |
| 20260506164332 | 10 | 131 | 1.6 | 12.9 | 0.00 | 0.00 | 0.00 | 54 | 1012.9 |
| 20260506163805 | 10 | 245 | 1.6 | 12.9 | 0.00 | 0.00 | 0.00 | 53 | 1012.9 |
| 20260506163302 | 10 | 109 | 1.6 | 6.4 | 0.00 | 0.00 | 0.00 | 53 | 1012.8 |
| 20260506162805 | 10 | 145 | 1.6 | 11.3 | 0.00 | 0.00 | 0.00 | 52 | 1012.9 |
| 20260506162251 | 10 | 99 | 1.6 | 11.3 | 0.00 | 0.00 | 0.00 | 53 | 1012.8 |
| 20260506161718 | 10 | 66 | 3.2 | 9.7 | 0.00 | 0.00 | 0.00 | 52 | 1012.8 |
| 20260506161213 | 10 | 90 | 3.2 | 24.1 | 0.00 | 0.00 | 0.00 | 53 | 1013.0 |
| 20260506160712 | 10 | 89 | 4.8 | 24.1 | 0.00 | 0.00 | 0.00 | 52 | 1012.8 |
| 20260506160208 | 10 | 81 | 3.2 | 14.5 | 0.00 | 0.00 | 0.00 | 52 | 1012.6 |
| 20260506155652 | 11 | 79 | 3.2 | 19.3 | 0.00 | 0.03 | 0.00 | 53 | 1012.7 |
| 20260506155432 | 11 | 72 | 3.2 | 19.3 | 0.00 | 0.03 | 0.00 | 52 | 1012.6 |
| 20260506154652 | 11 | 80 | 3.2 | 11.3 | 0.00 | 0.03 | 0.00 | 55 | 1012.6 |
| 20260506154142 | 11 | 70 | 3.2 | 11.3 | 0.00 | 0.03 | 0.00 | 50 | 1012.5 |
| 20260506153608 | 11 | 102 | 3.2 | 14.5 | 0.00 | 0.03 | 0.00 | 52 | 1012.5 |
| 20260506153103 | 11 | 64 | 3.2 | 14.5 | 0.00 | 0.03 | 0.00 | 53 | 1012.5 |
| 20260506152532 | 11 | 101 | 1.6 | 9.7 | 0.00 | 0.03 | 0.00 | 55 | 1012.6 |
| 20260506152025 | 11 | 120 | 1.6 | 9.7 | 0.00 | 0.03 | 0.00 | 54 | 1012.4 |
| 20260506151754 | 11 | 210 | 3.2 | 12.9 | 0.00 | 0.03 | 0.00 | 52 | 1012.4 |
| 20260506151249 | 11 | 88 | 3.2 | 8.0 | 0.00 | 0.03 | 0.00 | 54 | 1012.4 |
| 20260506150458 | 11 | 98 | 4.8 | 11.3 | 0.00 | 0.03 | 0.00 | 52 | 1012.3 |
| 20260506145947 | 11 | 82 | 4.8 | 14.5 | 0.00 | 0.03 | 0.00 | 52 | 1012.2 |
| 20260506145720 | 11 | 231 | 3.2 | 14.5 | 0.00 | 0.03 | 0.00 | 50 | 1012.2 |
| 20260506145220 | 11 | 58 | 4.8 | 12.9 | 0.00 | 0.03 | 0.00 | 52 | 1012.2 |
| 20260506144423 | 11 | 37 | 3.2 | 9.7 | 0.00 | 0.03 | 0.00 | 52 | 1011.9 |
| 20260506144416 | 11 | 48 | 3.2 | 12.9 | 0.00 | 0.03 | 0.00 | 49 | 1012.1 |
| 20260506143920 | 11 | 48 | 3.2 | 12.9 | 0.00 | 0.03 | 0.00 | 49 | 1012.1 |
| 20260506143652 | 12 | 94 | 1.6 | 12.9 | 0.00 | 0.03 | 0.00 | 48 | 1012.0 |
| 20260506143135 | 11 | 250 | 1.6 | 9.7 | 0.00 | 0.03 | 0.00 | 52 | 1012.0 |
| 20260506142401 | 11 | 67 | 1.6 | 11.3 | 0.00 | 0.03 | 0.00 | 52 | 1012.0 |
| 20260506141852 | 11 | 63 | 1.6 | 11.3 | 0.00 | 0.03 | 0.00 | 53 | 1012.1 |
| 20260506141355 | 11 | 47 | 1.6 | 6.4 | 0.00 | 0.03 | 0.00 | 51 | 1007.3 |
| 20260506140853 | 11 | 211 | 1.6 | 12.9 | 0.00 | 0.03 | 0.00 | 49 | 1011.9 |
| 20260506140350 | 11 | 91 | 1.6 | 12.9 | 0.00 | 0.03 | 0.00 | 51 | 1011.9 |
| 20260506135844 | 11 | 291 | 1.6 | 11.3 | 0.00 | 0.03 | 0.00 | 53 | 1011.8 |
| 20260506135553 | 11 | 30 | 3.2 | 8.0 | 0.00 | 0.03 | 0.00 | 53 | 1011.6 |
| 20260506134817 | 11 | 110 | 1.6 | 12.9 | 0.00 | 0.03 | 0.00 | 50 | 1011.6 |
| 20260506134321 | 11 | 75 | 1.6 | 12.9 | 0.00 | 0.03 | 0.00 | 51 | 1011.6 |
| 20260506133810 | 11 | 115 | 1.6 | 12.9 | 0.00 | 0.03 | 0.00 | 52 | 1011.7 |
| 20260506133305 | 11 | 234 | 1.6 | 12.9 | 0.00 | 0.03 | 0.00 | 52 | 1011.6 |
| 20260506132753 | 11 | 194 | 1.6 | 8.0 | 0.00 | 0.03 | 0.00 | 53 | 1011.6 |
| 20260506132246 | 11 | 91 | 1.6 | 8.0 | 0.00 | 0.03 | 0.00 | 52 | 1011.4 |
| 20260506131746 | 11 | 139 | 1.6 | 6.4 | 0.00 | 0.03 | 0.00 | 55 | 1011.3 |
| 20260506131253 | 10 | 147 | 1.6 | 6.4 | 0.00 | 0.03 | 0.00 | 59 | 1011.4 |
| 20260506130723 | 10 | 264 | 1.6 | 6.4 | 0.00 | 0.03 | 0.00 | 60 | 1011.3 |
| 20260506130224 | 10 | 217 | 1.6 | 9.7 | 0.00 | 0.03 | 0.00 | 63 | 1011.3 |
| 20260506125705 | 10 | 93 | 1.6 | 9.7 | 0.00 | 0.03 | 0.00 | 63 | 1011.1 |
| 20260506125153 | 10 | 82 | 1.6 | 6.4 | 0.00 | 0.03 | 0.00 | 62 | 1011.1 |
| 20260506124649 | 10 | 56 | 0.0 | 4.8 | 0.00 | 0.03 | 0.00 | 63 | 1011.0 |
| 20260506124152 | 10 | 94 | 0.0 | 6.4 | 0.00 | 0.03 | 0.00 | 63 | 1011.0 |
| 20260506123851 | 9 | 255 | 0.0 | 6.4 | 0.00 | 0.03 | 0.00 | 65 | 1010.9 |
| 20260506123118 | 9 | 67 | 0.0 | 6.4 | 0.00 | 0.03 | 0.00 | 64 | 1010.8 |
| 20260506122601 | 8 | 72 | 0.0 | 3.2 | 0.00 | 0.03 | 0.00 | 65 | 1010.6 |
| 20260506122101 | 8 | 214 | 0.0 | 8.0 | 0.00 | 0.03 | 0.00 | 69 | 1010.6 |
| 20260506121542 | 7 | 115 | 0.0 | 4.8 | 0.00 | 0.03 | 0.00 | 69 | 1010.2 |
| 20260506121035 | 6 | 74 | 0.0 | 1.6 | 0.00 | 0.03 | 0.00 | 70 | 1010.3 |
| 20260506120514 | 6 | 90 | 0.0 | 1.6 | 0.00 | 0.03 | 0.00 | 70 | 1010.3 |
| 20260506120013 | 6 | 104 | 0.0 | 3.2 | 0.00 | 0.03 | 0.00 | 72 | 1010.2 |
| 20260506115502 | 6 | 97 | 0.0 | 3.2 | 0.00 | 0.03 | 0.00 | 72 | 1010.2 |
| 20260506115003 | 6 | 70 | 0.0 | 3.2 | 0.00 | 0.03 | 0.00 | 71 | 1010.2 |
| 20260506114457 | 6 | 77 | 0.0 | 3.2 | 0.00 | 0.03 | 0.00 | 72 | 1010.2 |
| 20260506114124 | 6 | 70 | 0.0 | 1.6 | 0.00 | 0.03 | 0.00 | 72 | 1010.1 |
| 20260506113356 | 6 | 100 | 0.0 | 1.6 | 0.00 | 0.03 | 0.00 | 70 | 1010.0 |
| 20260506113117 | 6 | 110 | 0.0 | 1.6 | 0.00 | 0.03 | 0.00 | 72 | 1009.9 |
| 20260506112332 | 6 | 111 | 0.0 | 0.0 | 0.00 | 0.03 | 0.00 | 72 | 1009.8 |
| 20260506111757 | 6 | 111 | 0.0 | 1.6 | 0.00 | 0.03 | 0.00 | 71 | 1009.8 |
| 20260506111259 | 6 | 277 | 0.0 | 1.6 | 0.00 | 0.03 | 0.00 | 71 | 1009.7 |
| 20260506110752 | 6 | 121 | 0.0 | 0.0 | 0.00 | 0.03 | 0.00 | 70 | 1009.6 |
| 20260506110242 | 6 | 121 | 0.0 | 3.2 | 0.00 | 0.03 | 0.00 | 70 | 1009.5 |
| 20260506105926 | 6 | 85 | 0.0 | 3.2 | 0.00 | 0.03 | 0.00 | 69 | 1009.4 |
| 20260506105150 | 6 | 89 | 0.0 | 4.8 | 0.00 | 0.03 | 0.00 | 68 | 1009.4 |
| 20260506104638 | 6 | 100 | 0.0 | 4.8 | 0.00 | 0.03 | 0.00 | 69 | 1009.4 |
| 20260506104135 | 6 | 78 | 0.0 | 6.4 | 0.00 | 0.03 | 0.00 | 69 | 1009.4 |
| 20260506103858 | 6 | 69 | 0.0 | 6.4 | 0.00 | 0.03 | 0.00 | 67 | 1009.3 |
| 20260506103121 | 7 | 85 | 0.0 | 4.8 | 0.00 | 0.03 | 0.00 | 68 | 1009.2 |
| 20260506102620 | 7 | 85 | 0.0 | 4.8 | 0.00 | 0.03 | 0.00 | 68 | 1009.1 |
| 20260506102114 | 7 | 254 | 0.0 | 1.6 | 0.00 | 0.03 | 0.00 | 71 | 1009.1 |
| 20260506101554 | 7 | 256 | 0.0 | 1.6 | 0.00 | 0.03 | 0.00 | 69 | 1009.1 |
| 20260506101009 | 7 | 99 | 0.0 | 1.6 | 0.00 | 0.03 | 0.00 | 69 | 1008.9 |
| 20260506100504 | 7 | 72 | 0.0 | 1.6 | 0.00 | 0.03 | 0.00 | 70 | 1009.1 |
| 20260506095937 | 7 | 91 | 0.0 | 4.8 | 0.00 | 0.03 | 0.00 | 69 | 1009.1 |
| 20260506095423 | 7 | 91 | 0.0 | 4.8 | 0.00 | 0.03 | 0.00 | 68 | 1009.0 |
| 20260506094910 | 7 | 91 | 0.0 | 3.2 | 0.00 | 0.03 | 0.00 | 67 | 1009.0 |
| 20260506094405 | 7 | 134 | 0.0 | 1.6 | 0.00 | 0.03 | 0.00 | 66 | 1008.9 |
| 20260506093904 | 7 | 103 | 0.0 | 1.6 | 0.00 | 0.03 | 0.00 | 66 | 1008.9 |
| 20260506093619 | 7 | 218 | 0.0 | 3.2 | 0.00 | 0.03 | 0.00 | 67 | 1008.8 |
| 20260506092834 | 7 | 94 | 0.0 | 4.8 | 0.00 | 0.03 | 0.00 | 67 | 1008.8 |
| 20260506092600 | 7 | 101 | 0.0 | 4.8 | 0.00 | 0.03 | 0.00 | 66 | 1008.5 |
| 20260506091820 | 7 | 92 | 0.0 | 3.2 | 0.00 | 0.03 | 0.00 | 68 | 1008.5 |
| 20260506091215 | 7 | 78 | 0.0 | 1.6 | 0.00 | 0.03 | 0.00 | 67 | 1008.6 |
| 20260506090656 | 7 | 108 | 0.0 | 3.2 | 0.00 | 0.03 | 0.00 | 68 | 1008.8 |
| 20260506090148 | 7 | 86 | 0.0 | 3.2 | 0.00 | 0.03 | 0.00 | 68 | 1008.6 |
| 20260506085647 | 7 | 248 | 0.0 | 3.2 | 0.00 | 0.03 | 0.00 | 68 | 1008.4 |
| 20260506085136 | 7 | 102 | 0.0 | 4.8 | 0.00 | 0.03 | 0.00 | 67 | 1008.4 |
| 20260506084635 | 7 | 79 | 0.0 | 4.8 | 0.00 | 0.03 | 0.00 | 66 | 1008.4 |
| 20260506084134 | 7 | 111 | 0.0 | 6.4 | 0.00 | 0.03 | 0.00 | 67 | 1008.4 |
| 20260506083859 | 7 | 117 | 0.0 | 6.4 | 0.00 | 0.03 | 0.00 | 68 | 1008.3 |
| 20260506083128 | 7 | 93 | 0.0 | 3.2 | 0.00 | 0.03 | 0.00 | 67 | 1008.6 |
| 20260506082548 | 7 | 86 | 0.0 | 3.2 | 0.00 | 0.03 | 0.00 | 68 | 1008.5 |
| 20260506082044 | 7 | 68 | 0.0 | 4.8 | 0.00 | 0.03 | 0.00 | 68 | 1008.5 |
| 20260506081546 | 7 | 188 | 0.0 | 4.8 | 0.00 | 0.03 | 0.00 | 68 | 1008.4 |
| 20260506081045 | 7 | 172 | 0.0 | 1.6 | 0.00 | 0.03 | 0.00 | 67 | 1008.4 |
| 20260506080742 | 7 | 91 | 0.0 | 4.8 | 0.00 | 0.03 | 0.00 | 66 | 1008.2 |
| 20260506073403 | 7 | 209 | 0.0 | 1.6 | 0.00 | 0.03 | 0.00 | 66 | 1008.6 |
| 20260506072855 | 7 | 105 | 0.0 | 6.4 | 0.00 | 0.03 | 0.00 | 67 | 1008.5 |
| 20260506072347 | 7 | 116 | 0.0 | 6.4 | 0.00 | 0.03 | 0.00 | 67 | 1008.4 |
| 20260506071844 | 7 | 89 | 0.0 | 1.6 | 0.00 | 0.03 | 0.00 | 67 | 1008.4 |
| 20260506071344 | 7 | 108 | 0.0 | 1.6 | 0.00 | 0.03 | 0.00 | 67 | 1008.3 |
| 20260506070837 | 8 | 151 | 0.0 | 1.6 | 0.00 | 0.03 | 0.00 | 68 | 1008.2 |
| 20260506070337 | 8 | 151 | 0.0 | 1.6 | 0.00 | 0.03 | 0.00 | 67 | 1008.3 |
| 20260506062121 | 8 | 198 | 0.0 | 1.6 | 0.00 | 0.03 | 0.00 | 66 | 1008.6 |
| 20260506061543 | 8 | 98 | 0.0 | 1.6 | 0.00 | 0.03 | 0.00 | 66 | 1008.8 |
| 20260506061031 | 8 | 98 | 0.0 | 3.2 | 0.00 | 0.03 | 0.00 | 67 | 1008.8 |
| 20260506060521 | 8 | 106 | 0.0 | 3.2 | 0.00 | 0.03 | 0.00 | 68 | 1009.0 |
| 20260506051404 | 8 | 201 | 0.0 | 0.0 | 0.00 | 0.10 | 0.00 | 67 | 1008.8 |
| 20260506050855 | 8 | 201 | 0.0 | 0.0 | 0.00 | 0.10 | 0.00 | 67 | 1008.8 |
| 20260506050334 | 8 | 201 | 0.0 | 0.0 | 0.00 | 0.10 | 0.00 | 64 | 1008.9 |
| 20260506044814 | 8 | 201 | 0.0 | 0.0 | 0.00 | 0.10 | 0.00 | 66 | 1008.9 |
| 20260506044307 | 8 | 201 | 0.0 | 0.0 | 0.00 | 0.10 | 0.00 | 64 | 1008.9 |
| 20260506043806 | 8 | 200 | 0.0 | 0.0 | 0.00 | 0.10 | 0.00 | 64 | 1008.9 |
| 20260506043251 | 8 | 200 | 0.0 | 0.0 | 0.00 | 0.13 | 0.00 | 64 | 1008.8 |
| 20260506042746 | 8 | 200 | 0.0 | 1.6 | 0.00 | 0.20 | 0.00 | 63 | 1008.8 |
| 20260506042228 | 8 | 87 | 0.0 | 1.6 | 0.00 | 0.23 | 0.00 | 65 | 1008.9 |
| 20260506041722 | 8 | 86 | 0.0 | 1.6 | 0.00 | 0.23 | 0.00 | 62 | 1008.8 |
| 20260506041158 | 8 | 86 | 0.0 | 0.0 | 0.00 | 0.23 | 0.00 | 63 | 1008.8 |
| 20260506040638 | 8 | 86 | 0.0 | 1.6 | 0.00 | 0.23 | 0.00 | 66 | 1008.8 |
| 20260506040129 | 8 | 86 | 0.0 | 1.6 | 0.00 | 0.23 | 0.00 | 65 | 1008.6 |
| 20260506035622 | 8 | 86 | 0.0 | 1.6 | 0.00 | 0.23 | 0.23 | 65 | 1008.6 |
| 20260506035109 | 8 | 86 | 0.0 | 0.0 | 0.00 | 0.23 | 0.23 | 62 | 1008.5 |
| 20260506034545 | 8 | 86 | 0.0 | 1.6 | 0.00 | 0.23 | 0.23 | 63 | 1008.4 |
| 20260506034315 | 8 | 86 | 0.0 | 1.6 | 0.00 | 0.23 | 0.23 | 61 | 1008.4 |
| 20260506033517 | 8 | 84 | 0.0 | 1.6 | 0.00 | 0.23 | 0.23 | 62 | 1008.4 |
| 20260506033019 | 9 | 84 | 0.0 | 0.0 | 0.00 | 0.23 | 0.23 | 62 | 1008.4 |
| 20260506032740 | 9 | 84 | 0.0 | 1.6 | 0.00 | 0.23 | 0.23 | 61 | 1008.5 |
| 20260506032005 | 9 | 84 | 0.0 | 1.6 | 0.00 | 0.23 | 0.23 | 60 | 1008.6 |
| 20260506031441 | 9 | 84 | 0.0 | 0.0 | 0.00 | 0.23 | 0.23 | 61 | 1008.8 |
| 20260506031214 | 9 | 84 | 0.0 | 0.0 | 0.00 | 0.23 | 0.23 | 61 | 1009.0 |
| 20260506030349 | 9 | 84 | 0.0 | 1.6 | 0.00 | 0.23 | 0.23 | 60 | 1009.0 |
| 20260506025837 | 9 | 84 | 0.0 | 1.6 | 0.00 | 0.23 | 0.23 | 60 | 1008.9 |
| 20260506025322 | 9 | 84 | 0.0 | 1.6 | 0.00 | 0.23 | 0.23 | 59 | 1008.9 |
| 20260506024801 | 9 | 84 | 0.0 | 1.6 | 0.00 | 0.23 | 0.23 | 59 | 1008.8 |
| 20260506024230 | 9 | 84 | 0.0 | 0.0 | 0.00 | 0.23 | 0.23 | 61 | 1008.9 |
| 20260506023911 | 9 | 84 | 0.0 | 0.0 | 0.00 | 0.25 | 0.23 | 60 | 1009.0 |
| 20260506023135 | 9 | 83 | 0.0 | 0.0 | 0.00 | 0.25 | 0.23 | 61 | 1008.9 |
| 20260506022626 | 9 | 83 | 0.0 | 0.0 | 0.00 | 0.25 | 0.23 | 60 | 1008.9 |
| 20260506022342 | 9 | 83 | 0.0 | 0.0 | 0.00 | 0.25 | 0.23 | 58 | 1008.8 |
| 20260506021604 | 9 | 83 | 0.0 | 0.0 | 0.00 | 0.25 | 0.23 | 58 | 1008.8 |
| 20260506021057 | 9 | 83 | 0.0 | 0.0 | 0.00 | 0.25 | 0.23 | 58 | 1008.8 |
| 20260506020818 | 10 | 83 | 0.0 | 1.6 | 0.00 | 0.25 | 0.23 | 58 | 1008.8 |
| 20260506020306 | 10 | 83 | 0.0 | 1.6 | 0.00 | 0.25 | 0.23 | 57 | 1008.8 |
| 20260506015536 | 10 | 83 | 0.0 | 1.6 | 0.00 | 0.25 | 0.23 | 58 | 1008.6 |
| 20260506015247 | 10 | 100 | 0.0 | 1.6 | 0.00 | 0.25 | 0.23 | 56 | 1008.6 |
| 20260506014511 | 10 | 101 | 0.0 | 1.6 | 0.00 | 0.25 | 0.23 | 56 | 1008.5 |
| 20260506013956 | 10 | 101 | 0.0 | 3.2 | 0.00 | 0.25 | 0.23 | 56 | 1008.3 |
| 20260506013453 | 10 | 101 | 0.0 | 6.4 | 0.00 | 0.25 | 0.23 | 57 | 1008.4 |
| 20260506012930 | 10 | 99 | 0.0 | 6.4 | 0.00 | 0.25 | 0.23 | 56 | 1008.4 |
| 20260506012659 | 10 | 92 | 0.0 | 3.2 | 0.00 | 0.25 | 0.23 | 55 | 1008.2 |
| 20260506012138 | 10 | 104 | 0.0 | 1.6 | 0.00 | 0.25 | 0.23 | 58 | 1008.2 |
| 20260506011348 | 10 | 94 | 0.0 | 3.2 | 0.00 | 0.25 | 0.23 | 56 | 1008.1 |
| 20260506010816 | 10 | 94 | 0.0 | 3.2 | 0.00 | 0.25 | 0.23 | 55 | 1008.0 |
| 20260506010248 | 10 | 102 | 0.0 | 4.8 | 0.00 | 0.25 | 0.23 | 55 | 1008.3 |
| 20260506005743 | 10 | 347 | 0.0 | 4.8 | 0.00 | 0.25 | 0.23 | 57 | 1008.3 |
| 20260506005212 | 10 | 72 | 0.0 | 3.2 | 0.00 | 0.25 | 0.23 | 54 | 1008.3 |
| 20260506004702 | 10 | 72 | 0.0 | 3.2 | 0.00 | 0.25 | 0.23 | 54 | 1008.2 |
| 20260506004409 | 10 | 169 | 0.0 | 6.4 | 0.00 | 0.25 | 0.23 | 56 | 1008.3 |
| 20260506003606 | 10 | 83 | 0.0 | 6.4 | 0.00 | 0.25 | 0.23 | 55 | 1008.3 |
| 20260506003047 | 10 | 191 | 0.0 | 4.8 | 0.00 | 0.30 | 0.23 | 57 | 1008.3 |
| 20260506002544 | 10 | 79 | 0.0 | 3.2 | 0.00 | 0.30 | 0.23 | 57 | 1008.3 |
| 20260506002020 | 11 | 86 | 0.0 | 4.8 | 0.00 | 0.30 | 0.23 | 55 | 1008.2 |
| 20260506001519 | 11 | 214 | 0.0 | 6.4 | 0.00 | 0.30 | 0.23 | 56 | 1008.3 |
| 20260506001018 | 11 | 134 | 0.0 | 6.4 | 0.00 | 0.30 | 0.23 | 56 | 1008.2 |
| 20260506000513 | 11 | 231 | 0.0 | 1.6 | 0.00 | 0.33 | 0.23 | 59 | 1008.2 |
| 20260506000009 | 11 | 89 | 0.0 | 1.6 | 0.00 | 0.33 | 0.23 | 60 | 1008.0 |
| 20260505235428 | 11 | 87 | 0.0 | 1.6 | 0.00 | 0.33 | 0.23 | 60 | 1008.1 |
| 20260505234917 | 11 | 87 | 0.0 | 3.2 | 0.00 | 0.33 | 0.23 | 57 | 1008.0 |
| 20260505234412 | 11 | 232 | 0.0 | 3.2 | 0.00 | 0.33 | 0.23 | 57 | 1007.7 |
| 20260505234126 | 11 | 144 | 0.0 | 1.6 | 0.00 | 0.33 | 0.23 | 60 | 1007.6 |
| 20260505233349 | 11 | 94 | 0.0 | 1.6 | 0.00 | 0.38 | 0.23 | 58 | 1007.7 |
| 20260505232845 | 11 | 101 | 0.0 | 1.6 | 0.00 | 0.41 | 0.23 | 59 | 1007.7 |
| 20260505232541 | 11 | 98 | 0.0 | 1.6 | 0.00 | 0.41 | 0.23 | 57 | 1007.5 |
| 20260505231717 | 11 | 101 | 0.0 | 3.2 | 0.00 | 0.41 | 0.23 | 59 | 1007.7 |
| 20260505231205 | 11 | 101 | 0.0 | 3.2 | 0.00 | 0.48 | 0.23 | 57 | 1003.0 |
| 20260505230704 | 11 | 79 | 0.0 | 4.8 | 0.00 | 0.51 | 0.23 | 56 | 1007.6 |
| 20260505230403 | 11 | 86 | 0.0 | 6.4 | 0.00 | 0.51 | 0.23 | 56 | 1007.7 |
| 20260505225633 | 11 | 252 | 0.0 | 6.4 | 0.00 | 0.51 | 0.23 | 57 | 1007.7 |
| 20260505225123 | 11 | 148 | 0.0 | 1.6 | 0.00 | 0.51 | 0.23 | 58 | 1007.7 |
| 20260505224622 | 12 | 188 | 0.0 | 1.6 | 0.00 | 0.51 | 0.23 | 57 | 1007.7 |
| 20260505224043 | 12 | 146 | 0.0 | 4.8 | 0.00 | 0.51 | 0.23 | 58 | 1007.8 |
| 20260505223459 | 12 | 86 | 0.0 | 3.2 | 0.00 | 0.51 | 0.23 | 57 | 1007.7 |
| 20260505222942 | 12 | 229 | 0.0 | 6.4 | 0.00 | 0.51 | 0.23 | 58 | 1007.8 |
| 20260505222441 | 12 | 193 | 0.0 | 6.4 | 0.00 | 0.51 | 0.23 | 56 | 1007.8 |